Weather History for Crestview, FL

Change the Weather History Date:

Saturday, December 21, 2013

  Actual Average Record
Temperature  
Mean Temperature 68 °F -  
Max Temperature 73 °F - - ()
Min Temperature 64 °F - - ()
Cooling Degree Days 4    
Growing Degree Days 18 (Base 50)    
Moisture  
Dew Point 70 °F    
Average Humidity 96    
Maximum Humidity 100    
Minimum Humidity 87    
Precipitation  
Precipitation 0.02 in - - ()
Sea Level Pressure  
Sea Level Pressure 29.97 in    
Wind  
Wind Speed 11 mph (SSE)    
Max Wind Speed 23 mph    
Max Gust Speed 31 mph    
Visibility 10 miles    
Events Rain    
T = Trace of Precipitation, MM = Missing Value Source: NWS Daily Summary

Daily Weather History Graph

Daily Weather History Graph

Search for Another Location

Airport:

Trip Planner

Search our weather history database for the weather conditions in past years. The results will help you decide how hot, cold, wet, or windy it might be!

Date:

Astronomy

Dec. 21, 2013 Rise Set
Actual Time 6:39 AM CST 4:49 PM CST
Civil Twilight 6:12 AM CST 5:15 PM CST
Nautical Twilight 5:42 AM CST 5:46 PM CST
Astronomical Twilight 5:13 AM CST 6:15 PM CST
Moon 8:50 PM CST (12/21) 9:18 AM CST (12/21)
Length of Visible Light 11h 03m
Length of Day
10h 09m
Waning Gibbous, 84% of the Moon is Illuminated
Dec 21
Waning Gibbous
Dec 25
Last Quarter
Jan 1
New
Jan 7
First Quarter
Jan 15
Full

Hourly Weather History & Observations

Time (CST) Temp. Dew Point Humidity Pressure Visibility Wind Dir Wind Speed Gust Speed Precip Events Conditions
12:17 AM 64.4 °F 64.4 °F 100% 30.04 in 10.0 mi SE 3.5 mph - N/A   Overcast
12:32 AM 64.4 °F 64.4 °F 100% 30.04 in 10.0 mi SSE 4.6 mph - N/A   Overcast
12:37 AM 64.4 °F 64.4 °F 100% 30.04 in 10.0 mi SE 3.5 mph - N/A   Overcast
12:42 AM 64.4 °F 64.4 °F 100% 30.04 in 10.0 mi SE 3.5 mph - N/A   Overcast
12:58 AM 64.4 °F 64.4 °F 100% 30.04 in 10.0 mi SE 4.6 mph - N/A   Overcast
1:18 AM 64.4 °F 64.4 °F 100% 30.03 in 10.0 mi SE 5.8 mph - N/A   Overcast
1:58 AM 66.0 °F 65.7 °F 99% 30.03 in 10.0 mi SE 6.9 mph - N/A   Overcast
2:38 AM 66.2 °F 66.2 °F 100% 30.01 in 10.0 mi SE 8.1 mph - N/A   Overcast
2:39 AM 66.2 °F 66.2 °F 100% 30.01 in 9.0 mi SE 6.9 mph - N/A Rain Light Rain
2:58 AM 66.0 °F 65.7 °F 99% 30.02 in 6.0 mi SE 6.9 mph - 0.02 in Rain Light Rain
3:00 AM 66.2 °F 66.2 °F 100% 30.00 in 10.0 mi SE 8.1 mph - N/A   Light Drizzle
3:01 AM 66.2 °F 66.2 °F 100% 30.00 in 10.0 mi SE 8.1 mph - N/A   Overcast
3:17 AM 66.2 °F 66.2 °F 100% 30.00 in 10.0 mi SSE 8.1 mph - N/A Rain Light Rain
3:27 AM 66.2 °F 66.2 °F 100% 30.00 in 10.0 mi SSE 10.4 mph - N/A   Overcast
3:41 AM 68.0 °F 68.0 °F 100% 30.00 in 10.0 mi SE 10.4 mph - N/A Rain Light Rain
3:51 AM 68.0 °F 68.0 °F 100% 30.00 in 10.0 mi SSE 9.2 mph - N/A   Overcast
3:58 AM 67.6 °F 67.3 °F 99% 30.01 in 10.0 mi SSE 10.4 mph - 0.00 in   Overcast
4:13 AM 68.0 °F 68.0 °F 100% 29.99 in 10.0 mi SSE 10.4 mph - N/A   Overcast
4:33 AM 68.0 °F 68.0 °F 100% 29.99 in 10.0 mi SSE 10.4 mph - N/A   Overcast
4:58 AM 67.5 °F 67.1 °F 99% 30.00 in 10.0 mi SSE 10.4 mph 19.6 mph N/A   Overcast
5:13 AM 68.0 °F 68.0 °F 100% 29.99 in 10.0 mi SSE 12.7 mph - N/A   Overcast
5:58 AM 68.4 °F 68.0 °F 99% 29.99 in 10.0 mi SSE 12.7 mph 21.9 mph N/A   Overcast
6:12 AM 68.0 °F 68.0 °F 100% 29.98 in 10.0 mi SSE 16.1 mph 20.7 mph N/A   Overcast
6:22 AM 68.0 °F 68.0 °F 100% 29.98 in 10.0 mi SSE 16.1 mph 23.0 mph N/A   Overcast
6:32 AM 69.8 °F 68.0 °F 94% 29.98 in 10.0 mi SSE 15.0 mph 21.9 mph N/A   Overcast
6:58 AM 69.1 °F 68.7 °F 99% 30.00 in 10.0 mi SSE 16.1 mph 20.7 mph N/A   Overcast
7:13 AM 69.8 °F 69.8 °F 100% 29.98 in 10.0 mi SSE 18.4 mph 26.5 mph N/A   Overcast
7:21 AM 69.8 °F 69.8 °F 100% 29.98 in 10.0 mi SSE 16.1 mph 25.3 mph N/A   Overcast
7:58 AM 69.4 °F 69.1 °F 99% 30.00 in 10.0 mi SSE 12.7 mph 20.7 mph N/A   Overcast
8:38 AM 71.6 °F 69.8 °F 94% 29.99 in 10.0 mi South 16.1 mph - N/A   Overcast
8:58 AM 71.8 °F 71.1 °F 98% 30.01 in 10.0 mi South 19.6 mph 26.5 mph N/A   Overcast
9:33 AM 73.4 °F 69.8 °F 88% 29.99 in 10.0 mi SSE 21.9 mph 29.9 mph N/A   Mostly Cloudy
9:58 AM 73.6 °F 70.2 °F 89% 30.00 in 10.0 mi South 15.0 mph 28.8 mph N/A   Mostly Cloudy
10:08 AM 73.4 °F 69.8 °F 88% 29.99 in 10.0 mi South 18.4 mph 28.8 mph N/A   Overcast
10:28 AM 73.4 °F 69.8 °F 88% 29.99 in 10.0 mi South 19.6 mph 27.6 mph N/A   Mostly Cloudy
10:38 AM 73.4 °F 69.8 °F 88% 29.99 in 10.0 mi South 18.4 mph 28.8 mph N/A   Scattered Clouds
10:43 AM 73.4 °F 69.8 °F 88% 29.99 in 10.0 mi SSE 18.4 mph 28.8 mph N/A   Mostly Cloudy
10:48 AM 73.4 °F 69.8 °F 88% 29.99 in 10.0 mi SSE 21.9 mph 26.5 mph N/A   Mostly Cloudy
10:58 AM 73.4 °F 70.3 °F 90% 29.99 in 10.0 mi SSE 17.3 mph 28.8 mph N/A   Mostly Cloudy
11:38 AM 73.4 °F 69.8 °F 88% 29.96 in 10.0 mi SSE 18.4 mph 26.5 mph N/A   Mostly Cloudy
11:58 AM 73.9 °F 70.0 °F 87% 29.96 in 10.0 mi SSE 16.1 mph 28.8 mph N/A   Mostly Cloudy
12:03 PM 73.4 °F 69.8 °F 88% 29.95 in 10.0 mi South 19.6 mph 29.9 mph N/A   Mostly Cloudy
12:58 PM 73.6 °F 70.0 °F 88% 29.94 in 10.0 mi South 23.0 mph 26.5 mph N/A   Overcast
1:03 PM 73.4 °F 69.8 °F 88% 29.93 in 10.0 mi SSE 18.4 mph 28.8 mph N/A   Mostly Cloudy
1:08 PM 73.4 °F 69.8 °F 88% 29.92 in 10.0 mi South 20.7 mph 28.8 mph N/A   Mostly Cloudy
1:58 PM 73.4 °F 70.0 °F 89% 29.93 in 10.0 mi SSE 19.6 mph 27.6 mph N/A   Overcast
2:37 PM 73.4 °F 69.8 °F 88% 29.93 in 10.0 mi SSE 15.0 mph 23.0 mph N/A   Light Drizzle
2:46 PM 73.4 °F 69.8 °F 88% 29.93 in 10.0 mi SSE 16.1 mph 24.2 mph N/A   Overcast
2:54 PM 73.4 °F 71.6 °F 94% 29.93 in 10.0 mi SSE 16.1 mph 21.9 mph N/A Rain Light Rain
2:58 PM 73.0 °F 70.9 °F 93% 29.94 in 10.0 mi SSE 18.4 mph - 0.00 in Rain Light Rain
3:04 PM 73.4 °F 71.6 °F 94% 29.93 in 10.0 mi SSE 18.4 mph 23.0 mph N/A   Overcast
3:21 PM 73.4 °F 71.6 °F 94% 29.92 in 10.0 mi SSE 16.1 mph 31.1 mph N/A   Light Drizzle
3:30 PM 73.4 °F 71.6 °F 94% 29.92 in 10.0 mi SSE 16.1 mph 23.0 mph N/A   Overcast
3:40 PM 73.4 °F 71.6 °F 94% 29.92 in 10.0 mi SSE 16.1 mph 24.2 mph N/A   Light Drizzle
3:50 PM 73.4 °F 71.6 °F 94% 29.92 in 10.0 mi SSE 17.3 mph 24.2 mph N/A   Overcast
3:58 PM 72.9 °F 71.1 °F 94% 29.93 in 10.0 mi SSE 15.0 mph 24.2 mph 0.00 in   Overcast
4:58 PM 72.7 °F 71.2 °F 95% 29.94 in 10.0 mi SSE 16.1 mph 24.2 mph N/A   Overcast
5:18 PM 73.4 °F 71.6 °F 94% 29.94 in 10.0 mi SSE 15.0 mph 25.3 mph N/A   Overcast
5:23 PM 73.4 °F 71.6 °F 94% 29.94 in 10.0 mi SSE 11.5 mph 21.9 mph N/A   Overcast
5:24 PM 73.4 °F 71.6 °F 94% 29.94 in 10.0 mi SSE 15.0 mph 21.9 mph N/A Rain Light Rain
5:33 PM 71.6 °F 71.6 °F 100% 29.94 in 10.0 mi SSE 16.1 mph 24.2 mph N/A   Overcast
5:39 PM 71.6 °F 71.6 °F 100% 29.94 in 10.0 mi SSE 16.1 mph 24.2 mph N/A   Light Drizzle
5:50 PM 71.6 °F 71.6 °F 100% 29.94 in 10.0 mi SSE 15.0 mph 23.0 mph N/A   Overcast
5:55 PM 71.6 °F 71.6 °F 100% 29.94 in 10.0 mi SSE 16.1 mph 21.9 mph N/A   Overcast
5:58 PM 72.3 °F 72.0 °F 99% 29.95 in 10.0 mi SSE 16.1 mph 21.9 mph 0.00 in   Overcast
6:28 PM 71.6 °F 71.6 °F 100% 29.95 in 10.0 mi SSE 15.0 mph 23.0 mph N/A   Overcast
6:37 PM 71.6 °F 71.6 °F 100% 29.95 in 10.0 mi SSE 13.8 mph 23.0 mph N/A   Light Drizzle
6:46 PM 71.6 °F 71.6 °F 100% 29.95 in 10.0 mi SSE 16.1 mph 21.9 mph N/A   Overcast
6:58 PM 72.0 °F 71.6 °F 99% 29.97 in 10.0 mi SSE 11.5 mph 21.9 mph 0.00 in   Overcast
7:16 PM 71.6 °F 71.6 °F 100% 29.96 in 10.0 mi SSE 15.0 mph 21.9 mph N/A   Light Drizzle
7:26 PM 71.6 °F 71.6 °F 100% 29.96 in 10.0 mi SSE 16.1 mph 21.9 mph N/A   Overcast
7:41 PM 71.6 °F 71.6 °F 100% 29.96 in 10.0 mi SSE 11.5 mph - N/A   Overcast
7:58 PM 71.6 °F 71.4 °F 99% 29.98 in 10.0 mi SSE 15.0 mph - 0.00 in   Overcast
8:18 PM 71.6 °F 71.6 °F 100% 29.97 in 10.0 mi SE 12.7 mph 23.0 mph N/A   Overcast
8:23 PM 71.6 °F 71.6 °F 100% 29.97 in 10.0 mi SSE 13.8 mph - N/A   Overcast
8:33 PM 71.6 °F 71.6 °F 100% 29.97 in 10.0 mi SSE 12.7 mph - N/A   Overcast
8:53 PM 71.6 °F 71.6 °F 100% 29.97 in 10.0 mi SSE 12.7 mph 20.7 mph N/A   Overcast
8:58 PM 71.4 °F 71.2 °F 99% 29.98 in 10.0 mi SSE 13.8 mph 19.6 mph N/A   Overcast
9:56 PM 71.6 °F 71.6 °F 100% 29.96 in 10.0 mi SSE 13.8 mph - N/A   Light Drizzle
9:58 PM 71.6 °F 71.6 °F 100% 29.96 in 10.0 mi SSE 13.8 mph - N/A   Light Drizzle
10:07 PM 71.6 °F 71.6 °F 100% 29.97 in 10.0 mi SSE 15.0 mph 21.9 mph N/A   Mostly Cloudy
10:58 PM 71.8 °F 71.4 °F 99% 29.96 in 10.0 mi SSE 18.4 mph 23.0 mph 0.00 in   Overcast
11:09 PM 71.6 °F 71.6 °F 100% 29.95 in 10.0 mi SSE 15.0 mph 21.9 mph N/A   Overcast
11:58 PM 72.1 °F 71.8 °F 99% 29.96 in 10.0 mi SSE 18.4 mph 27.6 mph N/A   Overcast